GXIBA-1

Last updated on Wed Aug 19 2026 00:02:05 GMT+0000 (Coordinated Universal Time)

1 67685U 98067YB 26230.54688910 .00075785 00000+0 65210-3 0 9994 2 67685 51.6268 337.6926 0007817 60.1878 299.9895 15.68593701 30055
UTC large
Height (km)
Speed (km/s)
/
Latitude / Longitude
Inclination (degrees)
Orbital Period (minutes)
Azimuth
Elevation
Range (km)
Doppler Factor

Next 0 passes for location: London (51.5072 / 0.1276)

No passes found over London.
GXIBA-1